SCP
0 0 0 0 0 0 0 0 0 0 0 0 0 0 0 0 0 0 0 0 0 0 0 0 0 0 0 0 0 0 0 0 0 0 0 0 0 0 0 0 0 0 0
0 0 0 0 0 0 0 0 0 0 0 0 0 0 0 0 0 0 0 0 0 0 0 0 0 0 0 0 0 0 0 0 0 0 0 0 0 0 0 0 0 0 0
0 0 0 0 0 0 0 0 0 0 0 0 0 0 0 0 0 0 0 0 0 0 0 0 0 0 0 0 0 0 0 0 0 0 0 0 0 0 0 0 0 0 0
0 0 0 0 0 0 0 0 0 0 0 0 0 0 0 0 0 0 0 0 0 0 0 0 0 0 0 0 0 0 0 0 0 0 0 0 0 0 0 0 0 0 0
0 0 0 0 0 0 0 0 0 0 0 0 0 0 0 0 0 0 0 0 0 0 0 0 0 0 0 0 0 0 0 0 0 0 0 0 0 0 0 0 0 0 0
0 0 0 0 0 0 0 0 0 0 0 0 0 0 0 0 0 0 0 0 0 0 0 0 0 0 0 0 0 0 0 0 0 0 0 0 0 0 0 0 0 0 0
0 0 0 0 0 0 0 0 0 0 0 0 0 0 0 0 0 0 0 0 0 0 0 0 0 0 0 0 0 0 0 0 0 0 0 0 0 0 0 0 0 0 0
0 0 0 0 0 0 0 0 0 0 0 0 0 0 0 0 0 0 0 0 0 0 0 0 0 0 0 0 0 0 0 0 0 0 0 0 0 0 0 0 0 0 0
0 0 0 0 0 0 0 0 0 0 0 0 0 0 0 0 0 0 0 0 0 0 0 0 0 0 0 0 0 0 0 0 0 0 0 0 0 0 0 0 0 0 0
0 0 0 0 0 0 0 0 0 0 0 0 0 0 0 0 0 0 0 0 0 0 0 0 0 0 0 0 0 0 0 0 0 0 0 0 0 0 0 0 0 0 0
0 0 0 0 0 0 0 0 0 0 0 0 0 0 0 0 0 0 0 0 0 0 0 0 0 0 0 0 0 0 0 0 0 0 0 0 0 0 0 0 0 0 0
0 0 0 0 0 0 0 0 0 0 0 0 0 0 0 0 0 0 0 0 0 0 0 0 0 0 0 0 0 0 0 0 0 0 0 0 0 0 0 0 0 0 0
0 0 0 0 0 0 0 0 0 0 0 0 0 0 0 0 0 0 0 0 0 0 0 0 0 0 0 0 0 0 0 0 0 0 0 0 0 0 0 0 0 0 0
0 0 0 0 0 0 0 0 0 0 0 0 0 0 0 0 0 0 0 0 0 0 0 0 0 0 0 0 0 0 0 0 0 0 0 0 0 0 0 0 0 0 0
0 0 0 0 0 0 0 0 0 0 0 0 0 0 0 0 0 0 0 0 0 0 0 0 0 0 0 0 0 0 0 0 0 0 0 0 0 0 0 0 0 0 0
0 0 0 0 0 0 0 0 0 0 0 0 0 0 0 0 0 0 0 0 0 0 0 0 0 0 0 0 0 0 0 0 0 0 0 0 0 0 0 0 0 0 0
0 0 0 0 0 0 0 0 0 0 0 0 0 0 0 0 0 0 0 0 0 0 0 0 0 0 0 0 0 0 0 0 0 0 0 0 0 0 0 0 0 0 0
0 0 0 0 0 0 0 0 0 0 0 0 0 0 0 0 0 0 0 0 0 0 0 0 0 0 0 0 0 0 0 0 0 0 0 0 0 0 0 0 0 0 0
0 0 0 0 0 0 0 0 0 0 0 0 0 0 0 0 0 0 0 0 0 0 0 0 0 0 0 0 0 0 0 0 0 0 0 0 0 0 0 0 0 0 0
0 0 0 0 0 0 0 0 0 0 0 0 0 0 0 0 0 0 0 0 0 0 0 0 0 0 0 0 0 0 0 0 0 0 0 0 0 0 0 0 0 0 0
0 0 0 0 0 0 0 0 0 0 0 0 0 0 0 0 0 0 0 0 0 0 0 0 0 0 0 0 0 0 0 0 0 0 0 0 0 0 0 0 0 0 0
0 0 0 0 0 0 0 0 0 0 0 0 0 0 0 0 0 0 0 0 0 0 0 0 0 0 0 0 0 0 0 0 0 0 0 0 0 0 0 0 0 0 0
0 0 0 0 0 0 0 0 0 0 0 0 0 0 0 0 0 0 0 0 0 0 0 0 0 0 0 0 0 0 0 0 0 0 0 0 0 0 0 0 0 0 0
0 0 0 0 0 0 0 0 0 0 0 0 0 0 0 0 0 0 0 0 0 0 0 0 0 0 0 0 0 0 0 0 0 0 0 0 0 0 0 0 0 0 0
0 0 0 0 0 0 0 0 0 0 0 0 0 0 0 0 0 0 0 0 0 0 0 0 0 0 0 0 0 0 0 0 0 0 0 0 0 0 0 0 0 0 0
0 0 0 0 0 0 0 0 0 0 0 0 0 0 0 0 0 0 0 0 0 0 0 0 0 0 0 0 0 0 0 0 0 0 0 0 0 0 0 0 0 0 0
Wind_Speed
3 2 2 2 2 2 1 1 1 0 0 1 1 2 2 2 2 2 2 2 3 3 3 3 4 3 3 3 3 3 3 3 6 5 3 3 3 4 4 4 4 4 5
3 2 2 2 2 2 2 1 1 1 1 1 2 2 2 3 2 3 3 3 3 4 4 4 4 3 4 3 3 4 4 4 5 6 5 3 4 4 4 4 5 5 4
2 2 2 2 2 2 2 1 1 1 2 2 2 3 3 3 3 4 4 4 4 4 4 4 4 4 5 4 4 4 4 4 4 5 5 4 3 3 3 4 5 5 5
2 2 2 2 2 2 2 2 2 2 2 2 3 3 3 4 4 4 4 4 4 4 4 4 5 5 5 5 5 5 5 5 5 5 5 4 4 3 3 4 4 4 5
2 2 2 2 2 1 1 2 2 2 3 3 3 3 4 4 4 4 4 4 4 5 5 5 6 7 8 7 6 5 5 5 5 5 5 4 4 3 4 3 5 4 5
2 2 2 2 2 2 2 2 2 3 3 3 4 4 5 5 7 8 7 5 5 5 6 6 6 7 9 11 12 11 9 8 7 6 6 7 7 5 4 4 4 5 6
2 2 2 2 2 2 2 2 3 3 3 4 4 5 5 6 9 10 10 6 5 6 6 6 6 7 8 7 9 11 11 12 12 9 9 9 8 6 6 6 6 6 7
2 2 2 2 2 2 2 3 3 3 4 4 5 5 6 7 9 10 10 7 6 7 7 7 7 7 8 8 7 8 8 9 10 9 9 9 8 7 7 8 8 7 7
2 2 2 2 3 3 3 4 3 3 4 4 5 6 6 7 10 10 10 5 6 7 8 8 8 8 11 12 9 9 9 9 10 12 13 13 13 13 11 6 6 6 7
3 3 2 3 3 4 4 4 4 4 5 5 6 5 6 7 10 11 10 5 6 6 7 7 10 11 12 12 9 8 9 9 7 8 10 11 10 11 12 9 7 7 6
2 2 3 3 3 4 4 4 4 4 4 5 6 6 6 7 9 11 12 6 6 6 6 6 6 11 13 13 12 8 10 9 7 7 7 7 7 6 7 7 7 7 7
2 2 3 3 3 3 3 4 4 4 4 5 5 6 5 5 8 9 12 11 9 7 7 6 7 12 13 14 11 11 13 11 6 6 7 7 6 6 6 6 8 8 8
2 3 3 3 3 4 4 4 4 3 4 4 5 5 5 4 5 10 12 12 13 8 7 10 12 13 13 10 11 13 10 6 6 6 7 7 6 6 5 5 6 7 8
2 3 3 3 3 3 3 3 3 3 4 4 5 5 5 4 4 4 5 6 9 8 7 9 12 13 11 10 9 8 6 6 6 7 7 6 5 5 5 5 5 5 6
2 3 3 3 3 3 3 3 4 4 5 5 5 5 5 6 7 10 8 6 6 6 6 5 5 5 5 5 5 5 5 5 6 6 6 6 6 6 6 5 5 5 6
2 2 2 2 2 3 3 3 5 6 8 10 10 9 8 10 13 13 14 14 13 12 8 5 5 5 6 6 6 6 5 6 6 6 6 6 6 6 6 5 5 6 7
2 3 2 2 2 3 3 3 4 5 7 9 10 11 11 11 12 12 13 12 11 10 6 5 5 6 6 6 6 6 6 6 5 6 6 6 6 6 6 6 6 6 6
2 3 3 2 3 3 3 3 3 4 4 4 6 9 11 11 11 11 10 8 6 5 4 5 5 5 6 6 6 6 6 6 6 6 6 6 6 6 7 7 7 7 7
2 2 2 2 2 3 3 3 3 3 4 4 4 6 9 9 9 9 8 4 4 4 4 5 5 5 5 6 6 6 6 6 6 6 6 7 6 6 7 7 7 9 8
2 4 4 2 2 2 2 2 2 3 4 4 4 4 5 5 4 4 4 4 4 5 5 5 5 5 5 5 6 6 6 6 7 7 7 6 6 7 7 8 7 7 6
2 3 5 3 2 2 2 2 3 3 4 4 4 6 9 5 4 5 4 4 4 5 5 5 5 5 5 5 5 6 7 7 7 7 7 7 7 7 6 7 7 6 6
2 2 2 2 2 2 3 2 3 3 4 5 5 5 9 5 4 4 4 4 4 4 4 5 5 5 5 5 6 6 7 7 7 7 7 7 7 6 6 6 6 6 6
2 2 2 2 2 4 4 3 3 3 4 4 5 5 4 4 4 4 4 4 4 4 4 4 5 5 5 5 5 6 6 7 6 7 7 7 7 6 6 7 7 7 7
2 2 2 2 3 3 3 3 3 3 4 4 4 4 4 4 5 5 5 5 4 5 5 4 5 7 9 7 6 6 6 7 7 7 8 7 7 6 6 6 7 7 7
2 2 3 3 3 3 3 3 3 4 4 4 4 4 5 5 5 5 5 5 5 5 6 6 5 6 8 10 9 8 11 14 12 8 6 6 7 7 7 7 6 6 6
3 3 3 2 3 3 3 4 4 4 4 4 4 4 5 5 5 5 5 5 5 5 6 5 7 8 9 8 9 12 14 14 13 13 7 5 6 6 6 5 6 6 6
Wind_Direction
158 161 153 154 155 145 156 169 176 205 216 238 248 246 248 248 249 244 248 250 250 258 261 259 260 263 264 261 265 261 255 247 263 279 272 271 264 272 283 278 276 270 277
161 159 158 162 163 166 181 192 202 220 231 250 259 259 260 261 252 244 245 250 248 253 256 257 260 263 262 263 260 259 257 252 251 268 274 268 264 257 261 272 282 280 275
154 159 161 172 183 195 201 203 217 235 245 257 261 259 260 262 261 256 246 246 247 249 251 252 256 256 261 261 262 263 262 263 257 259 265 264 267 265 267 275 277 276 276
150 163 185 201 206 207 209 218 227 236 243 251 262 263 264 265 264 263 261 254 251 253 256 259 258 253 256 259 260 257 261 261 263 262 258 261 262 260 254 265 275 268 273
162 183 208 215 217 218 220 230 242 249 256 254 260 265 267 266 260 260 261 258 257 260 261 261 259 258 259 259 262 259 259 258 261 261 256 258 256 253 252 256 266 276 273
175 206 219 215 219 221 225 233 245 252 255 255 257 260 262 266 268 269 269 261 260 262 267 267 265 261 262 264 265 265 262 259 257 255 254 253 254 252 252 254 263 272 276
195 219 224 222 230 237 244 249 247 247 252 256 257 257 260 259 264 267 267 266 256 256 261 266 268 265 267 264 268 269 266 263 260 259 256 253 255 252 250 251 250 254 261
214 225 230 228 244 252 249 251 252 252 251 255 257 255 258 259 263 267 271 268 261 260 258 257 260 264 261 264 264 265 262 261 258 255 255 257 256 251 244 247 249 258 266
232 232 233 232 241 247 251 255 260 260 261 258 259 255 254 260 263 265 267 263 262 263 261 258 257 257 261 267 267 265 266 265 265 264 264 264 262 259 253 252 251 252 262
246 249 247 244 245 249 252 259 263 262 265 267 268 261 255 256 261 264 265 256 259 263 263 260 258 260 264 266 264 263 266 269 270 271 270 271 266 261 254 241 237 243 256
259 268 267 262 258 256 258 262 259 264 265 263 268 266 257 257 263 265 265 258 251 258 262 263 261 266 267 268 268 265 268 277 275 271 271 269 267 260 250 240 234 235 241
254 266 269 269 268 266 257 263 261 257 259 262 265 267 260 258 264 264 265 266 267 261 261 263 264 268 270 271 271 271 275 280 278 275 267 263 264 263 258 248 240 237 238
262 265 266 272 270 263 255 259 260 254 256 261 261 263 265 262 261 266 269 271 272 268 264 266 270 272 274 271 270 274 274 268 266 267 266 263 262 265 267 263 251 246 245
265 272 270 268 269 267 264 258 257 254 257 261 262 267 272 272 268 266 266 270 272 272 271 269 271 273 273 272 273 271 263 258 260 262 267 270 268 266 263 263 259 249 252
263 272 276 276 272 274 274 266 265 259 259 266 265 267 272 273 271 278 281 274 270 268 279 274 267 267 266 264 266 264 261 260 260 261 265 270 270 266 266 262 261 252 248
266 275 275 274 273 275 278 290 289 280 282 281 281 279 278 279 282 280 281 281 280 278 277 266 265 264 264 265 267 268 266 262 261 262 263 265 268 268 270 268 260 257 254
263 274 275 271 267 268 270 275 288 295 290 288 289 291 289 287 287 286 288 286 280 277 269 262 263 264 265 265 266 267 267 267 265 261 261 264 267 268 268 266 263 260 260
278 283 284 270 267 269 271 274 277 286 296 298 299 302 304 300 299 298 299 298 281 270 264 264 265 266 266 266 266 268 270 270 267 265 262 262 262 264 265 263 260 260 260
293 285 278 271 269 273 279 282 285 286 291 298 304 308 310 309 307 305 304 288 280 276 274 269 267 268 268 269 269 268 270 270 269 266 264 262 261 261 261 260 260 263 258
292 295 299 289 280 282 282 286 293 295 295 296 301 307 311 309 302 301 293 281 276 274 272 272 272 273 272 271 270 269 269 269 270 266 264 262 260 257 258 260 260 259 255
296 294 301 302 292 289 290 293 295 297 300 301 300 303 307 305 298 295 290 283 277 279 280 277 275 274 272 272 272 271 271 270 268 267 266 262 258 257 257 256 256 256 257
289 285 285 288 294 297 299 298 300 300 301 301 303 306 311 310 298 293 292 290 286 282 281 281 280 277 275 273 271 270 270 271 270 270 269 266 261 257 256 257 257 254 252
293 298 307 302 300 303 313 313 308 301 300 302 304 306 308 308 304 298 295 294 293 292 289 284 283 283 282 279 273 270 269 268 268 268 269 270 266 259 254 254 254 252 251
308 307 305 305 309 310 309 309 306 303 303 305 307 307 307 308 306 304 301 298 297 294 292 288 283 284 284 284 279 275 273 273 270 263 260 260 262 261 255 251 250 248 249
310 306 309 309 310 310 309 308 308 308 308 308 309 310 311 311 309 308 307 303 300 296 295 293 289 286 286 284 283 280 282 285 285 279 260 253 256 256 253 251 250 248 249
317 309 306 306 305 304 305 308 308 308 308 309 310 311 311 310 308 309 309 309 308 302 296 294 291 291 291 289 286 288 291 292 291 290 279 257 256 257 253 250 246 246 247